Zurück zum Katalog

IRIDIUM 109

AktivKommunikationPO
NORAD 41919·PAYLOAD·🇺🇸 United States

Gestartet Jan 14, 2017 von Vandenberg Space Force Base

Loading…

Nächste Überflüge (nächste 24 Stunden)

TLE

AktuellSource: CelesTrak SupGP

Epoche: Sep 14, 2026, 21:38 UTC

1 41919C 17003C   26257.90173611  .00003025  00000+0  10815-2 0  2578
2 41919  86.3950  50.9767 0002214  93.0550  12.8930 14.34211896    15

Verfolge IRIDIUM 109 in Echtzeit mit AllMySat

Download on the App Store